Nebraska City, NE

12:21 AM CST on February 26, 2017 (GMT -0600)
Nebraska City Municipal

Weather History for KAFK - October, 2012

Change the Weather History Date:

Thursday, October 11, 2012

  Actual Average (KSDA) Record (KSDA)
Temperature  
Mean Temperature 58 °F -  
Max Temperature 71 °F 68 °F 88 °F (1960)
Min Temperature 45 °F 43 °F 28 °F (1990)
Degree Days  
Heating Degree Days 7    
Growing Degree Days 8 (Base 50)    
Moisture  
Dew Point 35 °F    
Average Humidity 47    
Maximum Humidity 61    
Minimum Humidity 34    
Precipitation  
Precipitation 0.03 in - - ()
Sea Level Pressure  
Sea Level Pressure 30.10 in    
Wind  
Wind Speed 13 mph (SW)    
Max Wind Speed 23 mph    
Max Gust Speed 30 mph    
Visibility 10 miles    
Events      
Averages and records for this station are not official NWS values.
T = Trace of Precipitation, MM = Missing Value Source: NWS Daily Summary

Daily Weather History Graph

Daily Weather History Graph

Search for Another Location

Airport or City:

Trip Planner

Search our weather history database for the weather conditions in past years. The results will help you decide how hot, cold, wet, or windy it might be!

Date:

Astronomy

Oct. 11, 2012 Rise Set
Actual Time 7:30 AM CDT 6:48 PM CDT
Civil Twilight 7:03 AM CDT 7:16 PM CDT
Nautical Twilight 6:31 AM CDT 7:47 PM CDT
Astronomical Twilight 6:00 AM CDT 8:19 PM CDT
Moon 3:09 AM CDT (10/11) 4:26 PM CDT (10/11)
Length of Visible Light 12h 12m
Length of Day
11h 17m
Waning Crescent, 18% of the Moon is Illuminated
Oct 11
Waning Crescent
Oct 15
New
Oct 21
First Quarter
Oct 29
Full
Nov 6
Last Quarter

Hourly Weather History & Observations

Time (CDT) Temp. Windchill Dew Point Humidity Pressure Visibility Wind Dir Wind Speed Gust Speed Precip Events Conditions
12:15 AM 46.4 °F 41.1 °F 30.2 °F 53% 30.08 in 10.0 mi SSW 11.5 mph - N/A   Clear
12:35 AM 46.8 °F - 30.6 °F 53% 30.07 in 10.0 mi SSW 12.7 mph - N/A   Clear
12:55 AM 46.8 °F - 30.7 °F 54% 30.07 in 10.0 mi SSW 12.7 mph - N/A   Clear
1:15 AM 47.5 °F - 31.1 °F 53% 30.07 in 10.0 mi SSW 12.7 mph - N/A   Clear
2:15 AM 47.8 °F - 32.0 °F 54% 30.06 in 10.0 mi SSW 11.5 mph 16.1 mph N/A   Clear
2:55 AM 47.5 °F - 32.0 °F 55% 30.06 in 10.0 mi SSW 11.5 mph - N/A   Clear
3:15 AM 47.3 °F - 32.0 °F 55% 30.06 in 10.0 mi South 11.5 mph - N/A   Clear
3:35 AM 47.3 °F - 32.0 °F 55% 30.05 in 10.0 mi SSW 12.7 mph - N/A   Clear
3:55 AM 47.3 °F - 32.2 °F 56% 30.05 in 10.0 mi SSW 12.7 mph - N/A   Clear
4:15 AM 47.3 °F - 32.2 °F 56% 30.04 in 10.0 mi SSW 13.8 mph - N/A   Clear
4:35 AM 47.5 °F - 32.4 °F 56% 30.04 in 10.0 mi SSW 12.7 mph - N/A   Clear
4:55 AM 47.5 °F - 32.4 °F 56% 30.04 in 10.0 mi SSW 12.7 mph - N/A   Clear
5:15 AM 47.3 °F - 32.4 °F 56% 30.03 in 10.0 mi SSW 15.0 mph - N/A   Clear
5:35 AM 46.8 °F - 32.4 °F 57% 30.04 in 10.0 mi SSW 15.0 mph - N/A   Clear
5:55 AM 46.8 °F - 32.5 °F 58% 30.03 in 10.0 mi SSW 13.8 mph - N/A   Clear
6:15 AM 46.4 °F 40.4 °F 32.5 °F 59% 30.03 in 10.0 mi South 13.8 mph - N/A   Clear
6:35 AM 46.0 °F 40.2 °F 32.9 °F 60% 30.03 in 10.0 mi SSW 12.7 mph - N/A   Clear
6:55 AM 45.9 °F 40.4 °F 32.9 °F 61% 30.03 in 10.0 mi SSW 11.5 mph - N/A   Clear
7:15 AM 45.9 °F 40.0 °F 32.9 °F 61% 30.03 in 10.0 mi SSW 12.7 mph - N/A   Clear
7:35 AM 46.4 °F 41.1 °F 33.3 °F 60% 30.04 in 10.0 mi SSW 11.5 mph - N/A   Clear
7:55 AM 46.6 °F - 33.4 °F 60% 30.04 in 10.0 mi SSW 11.5 mph - N/A   Clear
8:15 AM 46.6 °F - 33.6 °F 61% 30.04 in 10.0 mi SSW 11.5 mph - N/A   Clear
8:35 AM 48.4 °F - 34.0 °F 58% 30.04 in 10.0 mi SSW 10.4 mph 16.1 mph N/A   Clear
8:55 AM 49.3 °F - 34.7 °F 57% 30.06 in 10.0 mi SSW 5.8 mph - N/A   Clear
9:15 AM 51.6 °F - 35.2 °F 54% 30.06 in 10.0 mi Calm Calm - N/A   Clear
9:35 AM 54.7 °F - 35.6 °F 49% 30.06 in 10.0 mi SSW 10.4 mph - N/A   Clear
9:55 AM 56.7 °F - 35.8 °F 46% 30.07 in 10.0 mi SSW 10.4 mph - N/A   Clear
10:15 AM 58.1 °F - 36.3 °F 44% 30.07 in 10.0 mi SW 9.2 mph - N/A   Clear
10:35 AM 59.4 °F - 37.0 °F 43% 30.07 in 10.0 mi SW 9.2 mph - N/A   Clear
10:55 AM 62.1 °F - 37.6 °F 40% 30.08 in 10.0 mi Calm Calm - N/A   Clear
11:15 AM 64.4 °F - 39.0 °F 39% 30.08 in 10.0 mi West 4.6 mph - N/A   Clear
11:35 AM 65.3 °F - 39.4 °F 39% 30.07 in 10.0 mi SW 6.9 mph - N/A   Clear
11:55 AM 67.6 °F - 41.2 °F 38% 30.07 in 10.0 mi West 3.5 mph - N/A   Clear
12:15 PM 69.6 °F - 42.6 °F 38% 30.08 in 10.0 mi NW 8.1 mph - N/A   Scattered Clouds
12:55 PM 69.4 °F - 42.8 °F 38% 30.06 in 10.0 mi WNW 9.2 mph 16.1 mph N/A   Clear
1:15 PM 71.1 °F - 43.3 °F 37% 30.05 in 10.0 mi Calm Calm - 0.03 in   Clear
1:35 PM 69.6 °F - 43.2 °F 38% 30.06 in 10.0 mi West 3.5 mph - 0.03 in   Mostly Cloudy
1:55 PM 69.6 °F - 43.0 °F 38% 30.05 in 10.0 mi NNE 6.9 mph - 0.03 in   Mostly Cloudy
2:15 PM 70.3 °F - 42.8 °F 37% 30.05 in 10.0 mi NNW 9.2 mph - N/A   Scattered Clouds
2:35 PM 69.8 °F - 42.4 °F 37% 30.04 in 10.0 mi North 11.5 mph - N/A   Scattered Clouds
2:55 PM 70.3 °F - 41.5 °F 35% 30.05 in 10.0 mi NNE 16.1 mph - N/A   Scattered Clouds
3:15 PM 69.8 °F - 40.5 °F 34% 30.05 in 10.0 mi NNE 18.4 mph 24.2 mph N/A   Clear
3:55 PM 66.9 °F - 39.2 °F 36% 30.07 in 10.0 mi NNE 18.4 mph - N/A   Mostly Cloudy
4:15 PM 66.2 °F - 39.2 °F 37% 30.08 in 10.0 mi NNE 13.8 mph 20.7 mph N/A   Mostly Cloudy
4:35 PM 65.5 °F - 38.5 °F 37% 30.08 in 10.0 mi NNE 17.3 mph - N/A   Overcast
5:15 PM 64.9 °F - 36.5 °F 35% 30.10 in 10.0 mi NNE 17.3 mph - N/A   Overcast
5:35 PM 63.3 °F - 34.7 °F 34% 30.11 in 10.0 mi NNE 20.7 mph 25.3 mph N/A   Overcast
5:55 PM 60.1 °F - 33.8 °F 37% 30.12 in 10.0 mi NNE 19.6 mph 26.5 mph N/A   Overcast
6:15 PM 59.2 °F - 33.4 °F 38% 30.14 in 10.0 mi NE 23.0 mph 29.9 mph N/A   Overcast
6:35 PM 57.6 °F - 34.0 °F 41% 30.15 in 10.0 mi NNE 23.0 mph 28.8 mph N/A   Overcast
6:55 PM 56.3 °F - 34.0 °F 43% 30.16 in 10.0 mi NE 19.6 mph 25.3 mph N/A   Overcast
7:15 PM 55.2 °F - 33.8 °F 44% 30.17 in 10.0 mi NNE 23.0 mph 28.8 mph N/A   Overcast
7:35 PM 54.5 °F - 32.7 °F 44% 30.19 in 10.0 mi NNE 20.7 mph 25.3 mph N/A   Overcast
8:15 PM 53.1 °F - 32.0 °F 45% 30.21 in 10.0 mi NNE 19.6 mph 24.2 mph N/A   Overcast
8:35 PM 52.7 °F - 32.0 °F 45% 30.23 in 10.0 mi NNE 19.6 mph 28.8 mph N/A   Overcast
8:55 PM 51.8 °F - 31.6 °F 46% 30.24 in 10.0 mi NNE 20.7 mph 26.5 mph N/A   Overcast
9:15 PM 51.1 °F - 30.9 °F 46% 30.25 in 10.0 mi NNE 20.7 mph 26.5 mph N/A   Overcast
9:55 PM 50.0 °F - 29.5 °F 45% 30.27 in 10.0 mi NE 19.6 mph 27.6 mph N/A   Overcast
10:15 PM 49.5 °F - 29.3 °F 46% 30.28 in 10.0 mi NE 13.8 mph 27.6 mph N/A   Overcast
10:55 PM 48.7 °F - 28.8 °F 46% 30.30 in 10.0 mi NE 16.1 mph 21.9 mph N/A   Overcast
11:15 PM 48.6 °F - 28.9 °F 47% 30.31 in 10.0 mi NE 16.1 mph - N/A   Overcast
11:35 PM 48.6 °F - 29.3 °F 47% 30.31 in 10.0 mi NE 18.4 mph 23.0 mph N/A   Overcast
11:55 PM 48.2 °F - 29.3 °F 48% 30.32 in 10.0 mi NE 17.3 mph 21.9 mph N/A   Overcast